Location: Ariel
(45.9570°N, 122.5700°W)
Time: 21:33:02
(UTC-07:00)

Transit 4A - Pass Details

Date: 29 July 2019
Orbit: 863 x 981 km, 66.8° (Epoch: 20 August)

Event Time Altitude Azimuth Distance (km) Brightness Sun altitude
Exits shadow 22:59:41 14° 96° (E) 2,449 9.7 -18.4°
Drops below altitude 10° 23:02:17 10° 71° (ENE) 2,738 10.2 -18.7°
Sets 23:06:12 0° 49° (NE) 3,691 11.1 -19.0°
